Home > Weather > Weiz > Past weeks

Flag for Austria Past Weather in Weiz, Styria, Austria — Yesterday and Last 2 Weeks

Now
64 °F

Overcast.


Feels Like: 64 °F
Forecast: 53 / 73 °F
Wind: N/A

Location: Graz-Thalerhof-Flughafen

Current Time: Jun 27, 2016 at 9:46:52 AM

Latest Report: Jun 27, 2016 at 9:00 AM


Visibility: 28 mi

Pressure: 30.01 "Hg

Humidity: 88%

Dew Point: 60 °F

Location of WeizLocation

Past Weather in Weiz — Graph

°F

Weiz Temperature Yesterday

Maximum temperature yesterday: 79 °F (at 2:00 PM)
Minimum temperature yesterday: 65 °F (at 6:00 AM)
Average temperature yesterday: 70 °F

High & Low Weather Summary for the Past Weeks

 TemperatureHumidityPressure
High87 °F (Jun 24, 6:00 PM)100% (Jun 16, 2:00 AM)30.27 "Hg (Jun 16, 2:00 AM)
Low53 °F (Jun 18, 5:00 AM)26% (Jun 17, 4:00 PM)29.50 "Hg (Jun 13, 6:00 PM)
Average67 °F76%29.91 "Hg
* Reported Jun 12 8:00 AM — Jun 27 8:00 AM, Weiz, Weather by CustomWeather, © 2016

Note: Actual official high and low records may vary slightly from our data, if they occured in-between our weather recording intervals... More about our weather records

Advertising

Weiz Weather History for the Previous 24 Hours

Scroll right to see more
 ConditionsComfort  
Time TempWeatherWind HumidityBarometerVisibility
8:00 AM
Mon, Jun 27
65 °FOvercast.N/A89%30.01 "Hg22 mi
7:00 AM63 °FOvercast.N/A93%30.02 "Hg14 mi
6:00 AM63 °FOvercast.N/A93%30.00 "Hg16 mi
5:00 AM64 °FThundershowers. Low clouds.N/A95%29.99 "Hg4 mi
4:00 AM65 °FLow clouds.N/A96%29.97 "Hg13 mi
3:00 AM65 °FPassing clouds.N/A95%29.97 "Hg11 mi
2:00 AM66 °FOvercast.N/A92%29.98 "Hg16 mi
1:00 AM66 °FLow clouds.N/A90%29.99 "Hg19 mi
12:00 AM65 °FPassing clouds.N/A91%29.99 "Hg22 mi
11:00 PM
Sun, Jun 26
67 °FPassing clouds.N/A86%30.00 "Hg19 mi
10:00 PM68 °FPassing clouds.N/A86%30.00 "Hg28 mi
9:00 PM68 °FPassing clouds.N/A86%29.98 "Hg28 mi
8:00 PM70 °FPartly sunny.N/A82%29.97 "Hg25 mi
7:00 PM70 °FPartly sunny.N/A82%29.96 "Hg19 mi
6:00 PM67 °FOvercast.N/A86%29.97 "Hg22 mi
5:00 PM68 °FRain showers. Low clouds.3 mph92%29.97 "Hg12 mi
4:00 PM72 °FThundershowers. Overcast.3 mph77%29.96 "Hg14 mi
3:00 PM78 °FOvercast.5 mph61%29.95 "Hg22 mi
2:00 PM79 °FOvercast.5 mph60%29.94 "Hg12 mi
1:00 PM78 °FOvercast.3 mph58%29.96 "Hg19 mi
12:00 PM77 °FOvercast.N/A56%29.97 "Hg22 mi
11:00 AM76 °FOvercast.N/A60%29.97 "Hg25 mi
10:00 AM74 °FPartly sunny.N/A61%29.96 "Hg16 mi
Weather by CustomWeather, © 2016

See weather overviewHow to use our weather pages